• en Suisse
  • Liste des pays
  • À 7 jours
  • Température de l'eau
  • Carte satellitaire
  • Carte météo
  • Widgets météo
  • user-avatar
    Se connecter

    Météo par heure à Kerman

    Ce jour, 19 Octobre, Vendredi

    Heure Température Précipitation Vent Pression Humidité
    00:00 +15°C° 0 mm 1 m/s 607 mmHg 43%
    01:00 +15°C° 0 mm 1 m/s 607 mmHg 44%
    02:00 +14°C° 0 mm 1 m/s 607 mmHg 46%
    03:00 +14°C° 0 mm 1 m/s 607 mmHg 47%
    04:00 +13°C° 0 mm 1 m/s 606 mmHg 48%
    05:00 +13°C° 0 mm 1 m/s 607 mmHg 48%
    06:00 +13°C° 0 mm 1 m/s 607 mmHg 48%
    07:00 +13°C° 0 mm 1 m/s 607 mmHg 48%
    08:00 +14°C° 0 mm 1 m/s 608 mmHg 45%
    09:00 +15°C° 0 mm 1 m/s 608 mmHg 42%
    10:00 +16°C° 0 mm 1 m/s 609 mmHg 38%
    11:00 +18°C° 0.1 mm 1 m/s 609 mmHg 35%
    12:00 +18°C° 0.1 mm 2 m/s 609 mmHg 32%
    13:00 +19°C° 0.1 mm 2 m/s 609 mmHg 29%
    14:00 +19°C° 0.1 mm 3 m/s 609 mmHg 28%
    15:00 +20°C° 0.1 mm 3 m/s 609 mmHg 28%
    16:00 +20°C° 0.1 mm 3 m/s 608 mmHg 27%
    17:00 +19°C° 0.1 mm 3 m/s 608 mmHg 28%
    18:00 +19°C° 0.1 mm 2 m/s 608 mmHg 28%
    19:00 +18°C° 0.1 mm 2 m/s 608 mmHg 29%
    20:00 +17°C° 0 mm 2 m/s 608 mmHg 30%
    21:00 +18°C° 0 mm 1 m/s 608 mmHg 31%
    22:00 +16°C° 0 mm 1 m/s 608 mmHg 32%
    23:00 +16°C° 0 mm 1 m/s 608 mmHg 33%

    Demain, 20 Octobre, Samedi

    Heure Température Précipitation Vent Pression Humidité
    00:00 +16°C° 0 mm 1 m/s 608 mmHg 34%
    01:00 +14°C° 0 mm 0 m/s 608 mmHg 35%
    02:00 +14°C° 0 mm 0 m/s 607 mmHg 36%
    03:00 +14°C° 0 mm 0 m/s 607 mmHg 37%
    04:00 +13°C° 0 mm 0 m/s 607 mmHg 38%
    05:00 +13°C° 0 mm 0 m/s 607 mmHg 38%
    06:00 +13°C° 0 mm 0 m/s 608 mmHg 38%
    07:00 +13°C° 0 mm 0 m/s 608 mmHg 38%
    08:00 +14°C° 0 mm 0 m/s 608 mmHg 36%
    09:00 +15°C° 0 mm 0 m/s 609 mmHg 35%
    10:00 +19°C° 0 mm 1 m/s 610 mmHg 33%
    11:00 +19°C° 0.2 mm 1 m/s 609 mmHg 32%
    12:00 +20°C° 0.2 mm 1 m/s 609 mmHg 31%
    13:00 +21°C° 0.2 mm 1 m/s 609 mmHg 31%
    14:00 +21°C° 0.5 mm 1 m/s 609 mmHg 31%
    15:00 +21°C° 0.5 mm 1 m/s 608 mmHg 32%
    16:00 +20°C° 0.5 mm 1 m/s 608 mmHg 33%
    17:00 +20°C° 0.4 mm 1 m/s 608 mmHg 35%
    18:00 +20°C° 0.4 mm 1 m/s 608 mmHg 36%
    19:00 +19°C° 0.4 mm 1 m/s 608 mmHg 38%
    20:00 +19°C° 0.2 mm 1 m/s 608 mmHg 39%
    21:00 +17°C° 0.2 mm 2 m/s 608 mmHg 41%
    22:00 +17°C° 0.2 mm 2 m/s 608 mmHg 43%
    23:00 +18°C° 0.2 mm 1 m/s 608 mmHg 45%

    Après-demain, 21 Octobre, Dimanche

    Heure Température Précipitation Vent Pression Humidité
    00:00 +16°C° 0.2 mm 1 m/s 608 mmHg 47%
    01:00 +16°C° 0.2 mm 1 m/s 608 mmHg 49%
    02:00 +15°C° 0.1 mm 1 m/s 607 mmHg 50%
    03:00 +15°C° 0.1 mm 1 m/s 607 mmHg 52%
    04:00 +14°C° 0.1 mm 1 m/s 607 mmHg 53%
    05:00 +14°C° 0 mm 1 m/s 607 mmHg 53%
    06:00 +14°C° 0 mm 1 m/s 607 mmHg 52%
    07:00 +14°C° 0 mm 1 m/s 608 mmHg 52%
    08:00 +16°C° 0 mm 1 m/s 608 mmHg 47%
    09:00 +18°C° 0 mm 1 m/s 609 mmHg 42%
    10:00 +19°C° 0 mm 1 m/s 610 mmHg 37%
    11:00 +20°C° 0 mm 1 m/s 609 mmHg 34%
    12:00 +20°C° 0 mm 2 m/s 609 mmHg 32%
    13:00 +21°C° 0 mm 2 m/s 609 mmHg 29%
    14:00 +21°C° 0 mm 2 m/s 609 mmHg 29%
    15:00 +21°C° 0 mm 2 m/s 609 mmHg 28%
    16:00 +21°C° 0 mm 2 m/s 609 mmHg 28%
    17:00 +21°C° 0 mm 2 m/s 609 mmHg 29%
    18:00 +21°C° 0 mm 1 m/s 609 mmHg 30%
    19:00 +21°C° 0 mm 1 m/s 609 mmHg 31%
    20:00 +20°C° 0 mm 1 m/s 609 mmHg 32%
    21:00 +20°C° 0 mm 1 m/s 609 mmHg 33%
    22:00 +19°C° 0 mm 1 m/s 609 mmHg 35%
    23:00 +19°C° 0 mm 1 m/s 608 mmHg 36%

    22 Octobre, Lundi

    Heure Température Précipitation Vent Pression Humidité
    00:00 +18°C° 0 mm 1 m/s 608 mmHg 37%
    01:00 +18°C° 0 mm 1 m/s 607 mmHg 38%
    02:00 +16°C° 0 mm 1 m/s 607 mmHg 39%
    03:00 +16°C° 0 mm 1 m/s 607 mmHg 40%
    04:00 +15°C° 0 mm 1 m/s 607 mmHg 41%
    05:00 +15°C° 0 mm 1 m/s 607 mmHg 41%
    06:00 +15°C° 0 mm 1 m/s 607 mmHg 41%
    07:00 +15°C° 0 mm 1 m/s 607 mmHg 41%
    08:00 +18°C° 0 mm 1 m/s 608 mmHg 37%
    09:00 +19°C° 0 mm 1 m/s 609 mmHg 33%
    10:00 +21°C° 0 mm 1 m/s 609 mmHg 29%
    11:00 +20°C° 0 mm 2 m/s 609 mmHg 26%
    12:00 +21°C° 0 mm 2 m/s 609 mmHg 24%
    13:00 +23°C° 0 mm 2 m/s 609 mmHg 22%
    14:00 +23°C° 0 mm 2 m/s 608 mmHg 21%
    15:00 +24°C° 0 mm 3 m/s 608 mmHg 20%
    16:00 +24°C° 0 mm 3 m/s 608 mmHg 20%
    17:00 +22°C° 0 mm 3 m/s 608 mmHg 22%
    18:00 +21°C° 0 mm 2 m/s 608 mmHg 23%
    19:00 +21°C° 0 mm 2 m/s 607 mmHg 25%
    20:00 +21°C° 0 mm 1 m/s 607 mmHg 27%
    21:00 +21°C° 0 mm 1 m/s 607 mmHg 28%
    22:00 +20°C° 0 mm 1 m/s 607 mmHg 29%
    23:00 +19°C° 0 mm 1 m/s 607 mmHg 30%

    23 Octobre, Mardi

    Heure Température Précipitation Vent Pression Humidité
    00:00 +19°C° 0 mm 1 m/s 606 mmHg 31%
    01:00 +18°C° 0 mm 1 m/s 606 mmHg 32%
    02:00 +18°C° 0 mm 1 m/s 606 mmHg 34%
    03:00 +16°C° 0 mm 1 m/s 606 mmHg 36%
    04:00 +16°C° 0 mm 1 m/s 605 mmHg 37%
    05:00 +15°C° 0 mm 1 m/s 606 mmHg 38%
    06:00 +14°C° 0 mm 0 m/s 606 mmHg 39%
    07:00 +14°C° 0 mm 0 m/s 606 mmHg 40%
    08:00 +16°C° 0 mm 0 m/s 607 mmHg 35%
    09:00 +19°C° 0 mm 1 m/s 608 mmHg 31%
    10:00 +20°C° 0 mm 1 m/s 608 mmHg 27%
    11:00 +21°C° 0 mm 1 m/s 608 mmHg 26%
    12:00 +22°C° 0 mm 1 m/s 608 mmHg 24%
    13:00 +23°C° 0 mm 2 m/s 608 mmHg 22%
    14:00 +23°C° 0 mm 2 m/s 608 mmHg 22%
    15:00 +23°C° 0 mm 2 m/s 607 mmHg 22%
    16:00 +23°C° 0 mm 2 m/s 607 mmHg 21%
    17:00 +23°C° 0 mm 2 m/s 607 mmHg 23%
    18:00 +21°C° 0 mm 2 m/s 607 mmHg 24%
    19:00 +20°C° 0 mm 2 m/s 607 mmHg 25%
    20:00 +20°C° 0 mm 2 m/s 607 mmHg 27%
    21:00 +20°C° 0 mm 1 m/s 607 mmHg 28%
    22:00 +20°C° 0 mm 1 m/s 607 mmHg 29%
    23:00 +19°C° 0 mm 1 m/s 607 mmHg 31%

    24 Octobre, Mercredi

    Heure Température Précipitation Vent Pression Humidité
    00:00 +18°C° 0 mm 1 m/s 606 mmHg 33%
    01:00 +18°C° 0 mm 1 m/s 606 mmHg 35%
    02:00 +15°C° 0 mm 0 m/s 606 mmHg 36%
    03:00 +15°C° 0 mm 0 m/s 605 mmHg 37%
    04:00 +14°C° 0 mm 0 m/s 605 mmHg 39%
    05:00 +14°C° 0 mm 0 m/s 605 mmHg 39%
    06:00 +14°C° 0 mm 0 m/s 606 mmHg 38%
    07:00 +14°C° 0 mm 0 m/s 606 mmHg 38%
    08:00 +15°C° 0 mm 0 m/s 607 mmHg 34%
    09:00 +19°C° 0 mm 1 m/s 607 mmHg 30%
    10:00 +20°C° 0 mm 1 m/s 608 mmHg 26%
    11:00 +21°C° 0 mm 1 m/s 608 mmHg 24%
    12:00 +22°C° 0 mm 1 m/s 607 mmHg 23%
    13:00 +21°C° 0 mm 2 m/s 607 mmHg 22%
    14:00 +23°C° 0 mm 2 m/s 607 mmHg 21%
    15:00 +23°C° 0 mm 2 m/s 607 mmHg 21%
    16:00 +22°C° 0 mm 3 m/s 607 mmHg 21%
    17:00 +21°C° 0 mm 2 m/s 607 mmHg 22%
    18:00 +20°C° 0 mm 2 m/s 607 mmHg 23%
    19:00 +20°C° 0 mm 2 m/s 606 mmHg 24%
    20:00 +20°C° 0 mm 1 m/s 606 mmHg 26%
    21:00 +19°C° 0 mm 1 m/s 606 mmHg 28%
    22:00 +19°C° 0 mm 1 m/s 606 mmHg 29%
    23:00 +16°C° 0 mm 0 m/s 606 mmHg 30%
    Voir plus